Location: Champs
(48.8539°N, 2.6040°E)
Time: 03:31:08
(UTC+00:00)

Cosmos 2082 Rocket - Pass Details

Date: 26 October 2021
Orbit: 833 x 853 km, 71.0° (Epoch: 30 November)

Event Time Altitude Azimuth Distance (km) Brightness Sun altitude
Exits shadow 04:33:38 15° 323° (NW) 2,149 4.0 -19.2°
Maximum altitude 04:34:02 15° 327° (NNW) 2,143 4.0 -19.2°
Drops below altitude 10° 04:37:16 10° 2° (N) 2,490 4.7 -18.6°
Sets 04:40:54 0° 25° (NNE) 3,425 5.7 -18.0°
